Location: New Mesquite
(33.1168°N, 96.4336°W)
Time: 13:54:02
(UTC+00:00)

Meteor 1-27 Rocket - Pass Details

Date: 03 July 2022
Orbit: 829 x 911 km, 81.3° (Epoch: 18 August)

Event Time Altitude Azimuth Distance (km) Brightness Sun altitude
Rises 07:36:43 0° 17° (NNE) 3,418 8.0 -31.7°
Reaches altitude 10° 07:41:16 10° 51° (NE) 2,459 6.8 -31.4°
Maximum altitude 07:42:54 11° 69° (ENE) 2,366 6.5 -31.3°
Drops below altitude 10° 07:44:30 10° 86° (E) 2,445 6.3 -31.2°
Enters shadow 07:47:19 - 110° (ESE) 2,936 6.5 -31.0°
